This demonstration page uses our WeatherBlox Daily Observations layout. Learn more.

Left ArrowRight Arrow

53.62937, 11.41316

Hourly Observations for April 24, 2015

Temp ( °F °C ) Dew Point ( °F °C ) Humidity (%) Winds ( mph kmh ) Pressure ( in mb ) Visibility ( mi km ) Precip ( " mm )
6:20 am 06:20 Cloudy with Fog 43 6 43 6 100 100 W 3 6 29.94 1014 0 0 N/A
6:50 am 06:50 Cloudy with Fog 43 6 43 6 100 100 W 5 7 29.94 1014 0 0 N/A
7:20 am 07:20 Cloudy with Fog 43 6 43 6 100 100 W 3 6 29.94 1014 0 0 N/A
7:50 am 07:50 Cloudy with Fog 43 6 43 6 100 100 WSW 7 11 29.94 1014 0 0 N/A
8:20 am 08:20 Cloudy with Mist and Fog 43 6 43 6 100 100 WSW 7 11 29.94 1014 2 4 N/A
8:50 am 08:50 Cloudy 45 7 45 7 100 100 W 7 11 29.94 1014 4 6 N/A
9:20 am 09:20 Cloudy 45 7 43 6 93 93 WSW 7 11 29.94 1014 4 7 N/A
9:50 am 09:50 Cloudy 45 7 45 7 100 100 WSW 7 11 29.94 1014 4 7 N/A
10:20 am 10:20 Cloudy 46 8 45 7 93 93 SW 7 11 29.94 1014 5 8 N/A
10:50 am 10:50 Cloudy 48 9 45 7 87 87 SW 8 13 29.94 1014 4 7 N/A
11:20 am 11:20 Partly Cloudy 52 11 46 8 82 82 WSW 7 11 29.91 1013 4 7 N/A
11:50 am 11:50 Mostly Sunny 54 12 46 8 77 77 WSW 8 13 29.91 1013 6 9 N/A
12:20 pm 12:20 Mostly Sunny 57 14 46 8 67 67 SW 8 13 29.91 1013 7 11 N/A
12:50 pm 12:50 Mostly Sunny 57 14 45 7 63 63 SW 9 15 29.88 1012 7 11 N/A
1:20 pm 13:20 Partly Cloudy 61 16 45 7 55 55 SW 13 20 29.88 1012 30 48 N/A
1:50 pm 13:50 Partly Cloudy 61 16 45 7 55 55 WSW 12 19 29.88 1012 30 48 N/A
2:20 pm 14:20 Partly Cloudy 61 16 43 6 52 52 SW 10 17 29.88 1012 30 48 N/A
2:50 pm 14:50 Partly Cloudy 63 17 45 7 52 52 SW 8 13 29.85 1011 30 48 N/A
3:20 pm 15:20 Partly Cloudy 63 17 45 7 52 52 WSW 10 17 29.85 1011 30 48 N/A
3:50 pm 15:50 Mostly Sunny 64 18 43 6 46 46 WSW 9 15 29.85 1011 30 48 N/A
4:20 pm 16:20 Mostly Sunny 64 18 43 6 46 46 SW 8 13 29.83 1010 7 11 N/A
4:50 pm 16:50 Mostly Sunny 64 18 41 5 43 43 WSW 12 19 29.83 1010 7 11 N/A
5:20 pm 17:20 Mostly Sunny 64 18 41 5 43 43 SW 12 19 29.83 1010 7 11 N/A
5:50 pm 17:50 Mostly Sunny 66 19 43 6 43 43 SW 8 13 29.83 1010 7 11 N/A
6:20 pm 18:20 Mostly Sunny 64 18 41 5 43 43 SSW 7 11 29.83 1010 7 11 N/A
6:50 pm 18:50 Mostly Sunny 66 19 41 5 40 40 S 3 6 29.80 1009 7 11 N/A

Powered by AerisWeather